Probability
0 0 0 0 0 0 0 0 0 0 0 0 0 0 0 0 0 0 0 0 0 0 0 0 0 0 0 0 0 0 0 0 0 0 0 0 0 0
0 0 0 0 0 0 0 0 0 0 0 0 0 0 0 0 0 0 0 0 0 0 0 0 0 0 0 0 0 0 0 0 0 0 0 0 0 0
0 0 0 0 0 0 0 0 0 0 0 0 0 0 0 0 0 0 0 0 0 0 0 0 0 0 0 0 0 0 0 0 0 0 0 0 0 0
0 0 0 0 0 0 0 0 0 0 0 0 0 0 0 0 0 0 0 0 0 0 0 0 0 0 0 0 0 0 0 0 0 0 0 0 0 0
0 0 0 0 0 0 0 0 0 0 0 0 0 0 0 0 0 0 0 0 0 0 0 0 0 0 0 0 0 0 0 0 0 0 0 0 0 0
0 0 0 0 0 0 0 0 0 0 0 0 0 0 0 0 0 0 0 0 0 0 0 0 0 0 0 0 0 0 0 0 0 0 0 0 0 0
0 0 0 0 0 0 0 0 0 0 0 0 0 0 0 0 0 0 0 0 0 0 0 0 0 0 0 0 0 0 0 0 0 0 0 0 0 0
0 0 0 0 0 0 0 0 0 0 0 0 0 0 0 0 0 0 0 0 0 0 0 0 0 0 0 0 0 0 0 0 0 0 0 0 0 0
0 0 0 0 0 0 0 0 0 0 0 0 0 0 0 0 0 0 0 0 0 0 0 0 0 0 0 0 0 0 0 0 0 0 0 0 0 0
0 0 0 0 0 0 0 0 0 0 0 0 0 0 0 0 0 0 0 0 0 0 0 0 0 0 0 0 0 0 0 0 0 0 0 0 0 0
0 0 0 0 0 0 0 0 0 0 0 0 0 0 0 0 0 0 0 0 0 0 0 0 0 0 0 0 0 0 0 0 0 0 0 0 0 0
0 0 0 0 0 0 0 0 0 0 0 0 0 0 0 0 0 0 0 0 0 0 0 0 0 0 0 0 0 0 0 0 0 0 0 0 0 0
0 0 0 0 0 0 0 0 0 0 0 0 0 0 0 0 0 0 0 0 0 0 0 0 0 0 0 0 0 0 0 0 0 0 0 0 0 0
0 0 0 0 0 0 0 0 0 0 0 0 0 0 0 0 0 0 0 0 0 0 0 0 0 0 0 0 0 0 0 0 0 0 0 0 0 0
0 0 0 0 0 0 0 0 0 0 0 0 0 0 0 0 0 0 0 0 0 0 0 0 0 0 0 0 0 0 0 0 0 0 0 0 0 0
0 0 0 0 0 0 0 0 0 0 0 0 0 0 0 0 0 0 0 0 0 0 0 0 0 0 0 0 0 0 0 0 0 0 0 0 0 0
0 0 0 0 0 0 0 0 0 0 0 0 0 0 0 0 0 0 0 0 0 0 0 0 0 0 0 0 0 0 0 0 0 0 0 0 0 0
0 0 0 0 0 0 0 0 0 0 0 0 0 0 0 0 0 0 0 0 0 0 0 0 0 0 0 0 0 0 0 0 0 0 0 0 0 0
0 0 0 0 0 0 0 0 0 0 0 0 0 0 0 0 0 0 0 0 0 0 0 0 0 0 0 0 0 0 0 0 0 0 0 0 0 0
0 0 0 0 0 0 0 0 0 0 0 0 0 0 0 0 0 0 0 0 0 0 0 0 0 0 0 0 0 0 0 0 0 0 0 0 0 0
0 0 0 0 0 0 0 0 0 0 0 0 0 0 0 0 0 0 0 0 0 0 0 0 0 0 0 0 0 0 0 0 0 0 0 0 0 0
0 0 0 0 0 0 0 0 0 0 0 0 0 0 0 0 0 0 0 0 0 0 0 0 0 0 0 0 0 0 0 0 0 0 0 0 0 0
0 0 0 0 0 0 0 0 0 0 0 0 0 0 0 0 0 0 0 0 0 0 0 0 0 0 0 0 0 0 0 0 0 0 0 0 0 0
Wind_Speed
0 0 0 1 1 1 1 1 2 4 5 3 2 2 2 3 6 5 5 11 14 15 16 17 17 17 18 18 18 19 20 20 20 20 20 20 20 20
1 0 1 1 1 1 1 2 2 3 5 3 3 3 4 5 8 6 6 13 13 15 16 17 17 18 18 18 18 19 20 20 20 20 20 20 20 20
1 1 2 2 2 2 2 2 2 3 6 5 3 4 4 5 6 5 6 6 7 13 16 17 17 18 18 18 18 19 19 19 20 20 20 20 20 20
2 2 3 2 2 2 2 3 3 3 5 7 5 4 5 5 6 6 7 6 6 12 15 17 17 18 18 18 18 19 18 19 19 19 20 20 21 20
2 3 3 2 3 3 3 3 3 4 4 5 7 5 5 5 6 6 6 5 7 9 13 15 16 17 18 18 19 18 18 19 19 19 20 20 20 21
3 3 3 3 4 3 3 4 4 4 4 5 6 6 5 5 4 5 7 5 6 7 10 12 14 16 17 18 18 19 19 19 19 19 20 20 20 20
3 3 4 4 4 4 4 4 4 4 4 5 6 6 6 5 5 5 7 7 7 5 6 7 8 7 8 13 16 18 19 20 20 19 20 19 19 19
4 4 4 4 5 6 7 7 6 6 6 6 6 7 8 7 6 6 7 8 8 3 5 8 6 7 7 6 14 19 19 20 20 20 20 19 18 18
4 4 4 4 4 4 6 8 8 9 9 8 8 8 8 7 7 8 8 9 10 7 7 9 6 8 7 9 18 19 20 20 20 20 19 19 18 18
4 4 5 5 5 4 4 5 6 7 8 7 7 8 7 6 6 8 9 9 9 6 5 8 7 8 8 8 15 18 19 20 20 20 20 19 18 18
5 4 5 5 7 7 5 6 7 7 8 9 11 11 13 12 9 6 6 6 8 6 3 5 6 8 8 7 9 15 17 19 19 20 20 19 18 17
4 4 5 6 8 8 5 5 7 7 6 7 8 9 8 9 10 6 5 6 7 7 3 4 5 6 8 5 5 7 9 15 19 20 19 19 18 11
4 4 4 7 9 9 8 5 8 8 5 6 6 6 5 5 5 5 5 6 7 7 5 4 5 5 6 8 7 7 7 8 9 11 14 17 18 13
4 4 4 8 9 9 7 8 10 8 4 5 5 5 5 5 5 5 6 7 7 9 8 6 6 6 7 9 9 7 7 8 8 8 8 13 14 16
4 6 7 8 8 6 8 10 7 4 4 5 6 6 5 6 5 5 6 6 8 8 7 8 8 7 7 9 10 10 10 9 7 7 7 7 8 7
4 5 7 7 6 6 5 5 4 4 4 6 6 6 5 5 5 5 5 5 6 7 6 7 8 8 8 10 10 11 10 8 8 8 8 8 7 7
3 2 3 3 4 4 4 4 4 4 4 5 5 6 6 6 6 5 4 5 5 7 8 6 5 6 9 10 10 10 10 9 9 9 8 9 8 7
3 3 4 4 4 5 5 5 4 4 5 5 5 6 6 6 6 5 5 5 7 8 8 7 7 7 6 7 10 10 8 9 9 9 8 9 10 8
3 4 4 5 5 5 5 5 5 5 5 5 6 6 6 6 6 6 6 6 7 7 7 6 5 5 8 10 8 7 7 8 8 9 8 7 10 10
4 5 5 5 5 5 5 5 5 5 5 5 6 6 6 6 6 6 6 7 7 8 8 6 5 5 7 9 9 10 12 9 8 9 9 8 8 11
5 5 5 5 5 5 5 5 5 5 6 5 6 6 6 6 7 7 7 8 7 7 8 9 7 8 6 5 7 9 8 10 12 9 8 8 8 7
5 5 5 5 5 5 5 5 5 6 6 6 6 6 6 6 7 8 7 7 7 7 9 8 7 6 5 6 9 11 11 10 11 13 12 10 7 7
5 5 5 5 5 5 5 5 7 6 6 6 6 6 6 6 6 7 7 7 7 8 8 8 7 6 6 7 9 9 11 10 8 8 7 11 15 16
Wind_Direction
238 273 283 285 283 272 260 249 262 289 293 276 286 297 301 294 302 301 293 300 303 306 307 307 307 307 306 305 305 304 304 301 301 301 300 299 298 296
272 279 279 272 278 269 267 272 262 264 279 285 289 295 301 303 307 300 292 302 301 303 304 305 305 304 305 304 304 304 303 304 303 302 300 300 300 297
294 283 276 278 271 271 273 277 270 261 271 286 289 300 298 299 303 296 293 291 293 299 302 303 303 303 303 303 304 305 304 304 304 304 302 299 299 297
286 283 279 279 277 275 270 267 263 262 266 284 296 299 293 292 295 296 298 298 291 296 302 304 304 303 303 304 304 304 305 304 302 302 301 299 297 297
281 278 280 283 284 283 279 273 271 276 271 278 289 295 293 296 299 297 294 293 296 297 303 303 302 302 302 303 303 303 303 302 301 299 298 298 296 295
275 276 276 269 268 272 275 275 281 284 283 281 285 292 294 297 300 304 306 304 299 301 300 299 299 300 299 300 301 302 301 300 299 299 298 297 295 294
281 278 278 277 278 277 278 278 276 273 279 281 286 292 295 305 306 306 303 307 298 290 294 294 295 290 292 294 295 296 297 297 299 299 300 299 297 295
285 283 282 276 283 282 282 283 279 273 275 275 279 283 290 296 302 304 305 307 302 295 301 294 288 286 287 283 291 295 297 299 300 300 300 299 299 298
279 282 287 289 277 276 282 283 281 278 275 274 275 278 286 295 299 297 294 289 285 292 300 290 286 288 289 291 297 297 299 300 301 301 300 299 298 298
276 274 277 285 281 282 287 286 281 279 278 272 271 278 282 288 284 286 291 291 285 280 281 286 291 289 294 290 292 295 300 301 302 303 301 299 298 298
283 283 281 283 290 293 289 285 289 290 288 281 282 285 289 294 299 300 298 298 297 293 286 283 293 302 294 284 287 296 300 301 301 302 301 300 300 300
288 284 282 287 295 293 282 281 285 290 295 296 290 288 287 288 293 279 277 283 292 293 293 298 296 315 302 283 286 295 296 298 301 300 300 300 302 300
284 286 286 291 290 290 289 279 285 300 297 288 289 289 288 284 283 277 269 264 271 274 286 302 290 289 278 294 297 289 288 295 299 297 295 297 298 298
275 284 291 298 295 293 292 294 298 301 296 293 289 287 288 288 287 283 278 271 264 268 275 275 273 278 285 289 291 294 292 291 290 290 292 293 293 292
279 290 297 300 301 296 294 299 298 289 285 285 285 285 287 289 291 290 286 283 279 273 270 268 268 273 270 274 283 289 298 296 282 286 292 294 293 293
286 295 300 301 300 301 300 294 283 278 277 277 283 287 292 292 288 289 291 297 295 291 275 266 265 267 273 274 275 282 285 284 293 295 294 290 287 283
307 302 297 300 298 296 294 289 288 287 280 280 284 289 291 290 289 293 288 293 286 292 301 296 278 270 266 270 275 273 279 284 286 291 294 292 286 281
300 280 280 281 282 286 287 287 280 278 281 285 285 284 286 287 290 291 288 284 286 290 293 299 308 312 303 275 253 266 274 283 291 290 286 289 290 288
264 266 269 273 277 278 277 277 278 278 279 278 278 279 282 285 285 286 287 287 286 288 291 293 294 298 304 303 291 271 284 293 295 293 288 285 285 289
258 263 268 271 274 276 277 278 280 282 277 276 276 276 275 280 282 281 280 282 287 292 293 291 282 277 277 286 290 292 287 282 286 290 294 296 288 288
268 267 267 270 272 274 274 275 276 277 278 276 274 273 273 274 277 278 279 281 283 286 287 289 289 291 290 290 287 289 287 285 290 288 292 298 303 300
267 269 271 270 271 271 273 274 275 274 275 273 273 273 272 271 274 277 277 281 281 282 285 290 297 298 287 278 285 292 299 303 301 296 286 281 285 283
266 271 274 275 274 273 273 274 274 273 272 273 274 273 273 275 274 274 275 277 282 286 292 296 299 293 283 279 284 291 295 303 309 311 299 294 293 286